Location: *
(51.8167°N, 12.5000°E)
Time: 13:10:29
(UTC+00:00)

Cosmos 1842 - Pass Details

Date: 16 September 2019
Orbit: 522 x 538 km, 82.5° (Epoch: 20 October)

Event Time Altitude Azimuth Distance (km) Brightness Sun altitude
Rises 17:50:08 0° 351° (N) 2,709 7.1 -4.9°
Reaches altitude 10° 17:52:19 10° 354° (N) 1,812 6.2 -5.3°
Maximum altitude 17:56:17 67° 77° (ENE) 588 3.3 -5.9°
Drops below altitude 10° 18:00:12 10° 161° (SSE) 1,793 5.6 -6.5°
Sets 18:02:21 0° 164° (SSE) 2,678 6.5 -6.8°
